TimeAKST,TemperatureF,Dew PointF,Humidity,Sea Level PressureIn,VisibilityMPH,Wind Direction,Wind SpeedMPH,Gust SpeedMPH,PrecipitationIn,Events,Conditions,WindDirDegrees,DateUTC
12:16 AM,-0.4,-0.4,100,29.56,10.0,Calm,Calm,-,N/A,,Overcast,0,2013-01-06 09:16:00
12:36 AM,-0.4,-2.2,92,29.56,10.0,Calm,Calm,-,N/A,,Overcast,0,2013-01-06 09:36:00
12:56 AM,-0.4,-2.2,92,29.56,10.0,Calm,Calm,-,N/A,,Overcast,0,2013-01-06 09:56:00
1:16 AM,-2.2,-5.8,85,29.56,10.0,Calm,Calm,-,N/A,,Overcast,0,2013-01-06 10:16:00
1:36 AM,-2.2,-4.0,92,29.55,10.0,Calm,Calm,-,N/A,,Overcast,0,2013-01-06 10:36:00
1:56 AM,-2.2,-5.8,85,29.55,10.0,Calm,Calm,-,N/A,,Overcast,0,2013-01-06 10:56:00
2:16 AM,-2.2,-4.0,92,29.55,10.0,Calm,Calm,-,N/A,,Overcast,0,2013-01-06 11:16:00
2:36 AM,-2.2,-4.0,92,29.55,10.0,Calm,Calm,-,N/A,,Overcast,0,2013-01-06 11:36:00
3:16 AM,-2.2,-2.2,100,29.54,10.0,Calm,Calm,-,N/A,,Overcast,0,2013-01-06 12:16:00
3:36 AM,-0.4,-2.2,92,29.54,10.0,Calm,Calm,-,N/A,,Overcast,0,2013-01-06 12:36:00
3:56 AM,-0.4,-2.2,92,29.54,10.0,Calm,Calm,-,N/A,,Overcast,0,2013-01-06 12:56:00
4:16 AM,-0.4,-2.2,92,29.54,10.0,Calm,Calm,-,N/A,,Overcast,0,2013-01-06 13:16:00
4:36 AM,-0.4,-2.2,92,29.54,10.0,Calm,Calm,-,N/A,,Overcast,0,2013-01-06 13:36:00
4:56 AM,6.8,6.8,100,29.53,10.0,ENE,6.9,-,N/A,,Overcast,60,2013-01-06 13:56:00
5:16 AM,6.8,3.2,85,29.53,10.0,NE,3.5,-,N/A,,Overcast,50,2013-01-06 14:16:00
5:36 AM,6.8,6.8,100,29.53,10.0,NE,5.8,-,N/A,,Overcast,50,2013-01-06 14:36:00
5:56 AM,6.8,6.8,100,29.53,10.0,NE,6.9,-,N/A,,Overcast,50,2013-01-06 14:56:00
6:16 AM,6.8,5.0,92,29.53,10.0,ENE,8.1,-,N/A,,Overcast,60,2013-01-06 15:16:00
6:36 AM,6.8,5.0,92,29.53,10.0,ENE,5.8,-,N/A,,Overcast,70,2013-01-06 15:36:00
6:56 AM,6.8,5.0,92,29.53,10.0,ENE,4.6,-,N/A,,Overcast,70,2013-01-06 15:56:00
7:16 AM,6.8,5.0,92,29.52,10.0,ENE,5.8,-,N/A,,Overcast,60,2013-01-06 16:16:00
7:36 AM,6.8,3.2,85,29.52,10.0,ENE,5.8,-,N/A,,Overcast,60,2013-01-06 16:36:00
7:56 AM,6.8,3.2,85,29.52,10.0,ENE,4.6,-,N/A,,Overcast,60,2013-01-06 16:56:00
8:16 AM,6.8,3.2,85,29.52,10.0,ENE,5.8,-,N/A,,Overcast,60,2013-01-06 17:16:00
8:36 AM,6.8,3.2,85,29.52,10.0,ENE,4.6,-,N/A,,Overcast,70,2013-01-06 17:36:00
8:56 AM,5.0,1.4,85,29.52,10.0,ENE,4.6,-,N/A,,Overcast,70,2013-01-06 17:56:00
9:16 AM,5.0,1.4,85,29.52,10.0,Calm,Calm,-,N/A,,Overcast,0,2013-01-06 18:16:00
9:36 AM,3.2,1.4,92,29.53,10.0,Calm,Calm,-,N/A,,Overcast,0,2013-01-06 18:36:00
9:56 AM,3.2,-0.4,85,29.52,10.0,NE,5.8,-,N/A,,Overcast,40,2013-01-06 18:56:00
10:16 AM,5.0,3.2,92,29.52,10.0,NE,6.9,-,N/A,,Overcast,50,2013-01-06 19:16:00
10:36 AM,5.0,1.4,85,29.52,10.0,NE,5.8,-,N/A,,Overcast,50,2013-01-06 19:36:00
10:56 AM,3.2,1.4,92,29.51,10.0,ENE,5.8,-,N/A,,Overcast,60,2013-01-06 19:56:00
11:16 AM,5.0,3.2,92,29.51,10.0,ENE,6.9,-,N/A,,Overcast,60,2013-01-06 20:16:00
11:36 AM,5.0,1.4,85,29.51,10.0,NE,5.8,-,N/A,,Overcast,50,2013-01-06 20:36:00
11:56 AM,5.0,1.4,85,29.51,10.0,ENE,4.6,-,N/A,,Overcast,60,2013-01-06 20:56:00
12:16 PM,5.0,3.2,92,29.50,10.0,ENE,6.9,-,N/A,,Overcast,60,2013-01-06 21:16:00
12:36 PM,6.8,3.2,85,29.50,10.0,ENE,5.8,-,N/A,,Overcast,70,2013-01-06 21:36:00
12:56 PM,6.8,3.2,85,29.51,10.0,ENE,5.8,-,N/A,,Overcast,60,2013-01-06 21:56:00
1:16 PM,6.8,3.2,85,29.50,10.0,ENE,4.6,-,N/A,,Overcast,60,2013-01-06 22:16:00
1:36 PM,6.8,3.2,85,29.50,10.0,ENE,3.5,-,N/A,,Overcast,70,2013-01-06 22:36:00
1:56 PM,6.8,3.2,85,29.50,10.0,ENE,4.6,-,N/A,,Overcast,60,2013-01-06 22:56:00
2:16 PM,6.8,1.4,79,29.50,10.0,ENE,4.6,-,N/A,,Overcast,60,2013-01-06 23:16:00
2:36 PM,6.8,1.4,79,29.50,10.0,NE,5.8,-,N/A,,Overcast,50,2013-01-06 23:36:00
2:56 PM,6.8,1.4,79,29.49,10.0,NE,6.9,-,N/A,,Overcast,50,2013-01-06 23:56:00
3:16 PM,6.8,1.4,79,29.50,10.0,NE,5.8,-,N/A,,Overcast,50,2013-01-07 00:16:00
3:36 PM,6.8,1.4,79,29.49,10.0,ENE,4.6,-,N/A,,Overcast,70,2013-01-07 00:36:00
3:56 PM,6.8,3.2,85,29.49,10.0,ENE,6.9,-,N/A,,Overcast,70,2013-01-07 00:56:00
4:16 PM,6.8,3.2,85,29.49,10.0,ENE,4.6,-,N/A,,Overcast,70,2013-01-07 01:16:00
4:36 PM,6.8,3.2,85,29.49,10.0,ENE,5.8,-,N/A,,Overcast,70,2013-01-07 01:36:00
4:56 PM,6.8,1.4,79,-9999,10.0,ENE,8.1,-,N/A,,Overcast,70,2013-01-07 01:56:00
5:16 PM,6.8,1.4,79,29.49,10.0,ENE,6.9,-,N/A,,Overcast,70,2013-01-07 02:16:00
5:36 PM,6.8,1.4,79,29.48,10.0,NE,8.1,-,N/A,,Overcast,50,2013-01-07 02:36:00
5:56 PM,6.8,1.4,79,29.47,10.0,NE,9.2,-,N/A,,Overcast,50,2013-01-07 02:56:00
6:16 PM,6.8,1.4,79,29.47,10.0,ENE,5.8,-,N/A,,Overcast,60,2013-01-07 03:16:00
6:36 PM,6.8,1.4,79,29.48,10.0,ENE,9.2,-,N/A,,Overcast,60,2013-01-07 03:36:00
6:56 PM,6.8,1.4,79,29.47,10.0,ENE,8.1,-,N/A,,Overcast,60,2013-01-07 03:56:00
7:16 PM,6.8,1.4,79,29.47,10.0,ENE,8.1,-,N/A,,Overcast,60,2013-01-07 04:16:00
7:36 PM,6.8,1.4,79,29.47,10.0,ENE,10.4,-,N/A,,Overcast,60,2013-01-07 04:36:00
7:56 PM,6.8,-0.4,72,29.47,10.0,NE,10.4,-,N/A,,Overcast,50,2013-01-07 04:56:00
8:16 PM,5.0,-0.4,78,29.46,10.0,NE,8.1,-,N/A,,Overcast,50,2013-01-07 05:16:00
8:36 PM,5.0,-0.4,78,29.46,10.0,NE,9.2,-,N/A,,Overcast,50,2013-01-07 05:36:00
8:56 PM,5.0,-0.4,78,29.46,10.0,ENE,8.1,-,N/A,,Overcast,60,2013-01-07 05:56:00
9:16 PM,5.0,-0.4,78,29.46,10.0,ENE,9.2,-,N/A,,Overcast,70,2013-01-07 06:16:00
9:36 PM,5.0,-0.4,78,29.46,10.0,ENE,9.2,-,N/A,,Overcast,60,2013-01-07 06:36:00
9:56 PM,5.0,-0.4,78,29.45,10.0,ENE,11.5,-,N/A,,Overcast,60,2013-01-07 06:56:00
10:16 PM,5.0,-0.4,78,29.45,10.0,ENE,9.2,-,N/A,,Overcast,60,2013-01-07 07:16:00
10:36 PM,5.0,-0.4,78,29.45,10.0,ENE,9.2,-,N/A,,Overcast,60,2013-01-07 07:36:00
10:56 PM,5.0,-0.4,78,29.45,10.0,ENE,5.8,-,N/A,,Overcast,70,2013-01-07 07:56:00
11:16 PM,5.0,-0.4,78,29.46,10.0,NE,9.2,-,N/A,,Overcast,50,2013-01-07 08:16:00
11:36 PM,5.0,-0.4,78,29.45,10.0,NE,9.2,-,N/A,,Overcast,50,2013-01-07 08:36:00
11:56 PM,5.0,-2.2,72,29.45,10.0,NE,9.2,-,N/A,,Overcast,50,2013-01-07 08:56:00